Regional Weather Roundup
Issued by NWS

Home | Current Version | Previous Version | Graphics & Text | Print | Product List | Glossary On
Versions: 1 2 3 4 5 6 7 8 9 10 11 12 13 14 15 16 17 18 19 20 21 22 23 24 25 26 27 28 29 30 31 32 33 34 35 36 37 38 39 40 41 42 43 44 45 46 47 48 49 50
000
ASUS43 KFSD 280902
RWRSD

WEATHER ROUNDUP FOR SOUTH DAKOTA
NATIONAL WEATHER SERVICE SIOUX FALLS SD
400 AM CDT THU AUG 28 2014

NOTE: "FAIR" INDICATES FEW OR NO CLOUDS BELOW 12,000 FEET WITH NO
SIGNIFICANT WEATHER AND/OR OBSTRUCTIONS TO VISIBILITY.


SDZ001>005-009-010-012>017-281000-
NORTHWEST AND NORTH CENTRAL SOUTH DAKOTA

CITY           SKY/WX    TMP DP  RH WIND       PRES   REMARKS
BUFFALO          N/A     59  58  96 W7        29.94F
FAITH            N/A     63  63 100 CALM      29.98F
MOBRIDGE       CLOUDY    67  66  97 SE5       29.94F
$$

SDZ012>016-024>037-041>051-057-063-072>074-281000-
SOUTHWEST AND SOUTH CENTRAL SOUTH DAKOTA

CITY           SKY/WX    TMP DP  RH WIND       PRES   REMARKS
RAPID CTY ARPT CLOUDY    63  60  90 N7        30.01F
PIERRE         LGT RAIN  66  66 100 SE7       29.95F
CUSTER         CLOUDY    55  52  89 NW3       30.11F
ELLSWORTH AFB  CLOUDY    62  61  96 NE3       30.01S
PHILIP         RAIN      66  64  93 NE5       29.95F
PINE RIDGE     CLOUDY    64  62  93 CALM      29.99S
WINNER         CLOUDY    68  67  96 E9        29.95F
$$

SDZ004>011-016>023-039-040-281000-
NORTHEAST SOUTH DAKOTA

CITY           SKY/WX    TMP DP  RH WIND       PRES   REMARKS
ABERDEEN       CLOUDY    63  63 100 E5        29.99F
WATERTOWN      CLOUDY    66  62  87 SE12G18   30.02F
SISSETON         N/A     61  61 100 SW6       30.01F
$$

SDZ017-020-022-023-036>040-048>070-281000-
SOUTHEAST SOUTH DAKOTA

CITY           SKY/WX    TMP DP  RH WIND       PRES   REMARKS
SIOUX FALLS    LGT RAIN  67  65  93 E8        30.00F
HURON          LGT RAIN  68  66  93 SE5       29.97F
CHAMBERLAIN    LGT RAIN  66  66 100 E6        29.95F
MITCHELL       LGT RAIN  68  67  96 SE8       29.98F
YANKTON        CLOUDY    68  66  94 E6        29.97F
$$

ABBREVIATIONS USED IN REMARKS
   TC - TEMPERATURE IN CELSIUS
  WCI - WIND CHILL INDEX
   HX - HEAT INDEX
  VSB - VISIBILITY



USA.gov is the U.S. government's official web portal to all federal, state and local government web resources and services.